Terminal Aerodrome Forecast
Issued by NWS

Home | Current Version | Previous Version | Text Only | Print | Product List | Glossary On
Versions: 1 2 3 4 5 6 7 8 9 10 11 12 13 14 15 16 17 18 19 20 21 22 23 24 25 26 27 28 29 30 31 32 33 34 35 36 37 38 39 40 41 42 43 44 45 46 47 48 49 50
000
FTUS41 KGYX 230831 AAA
TAFMHT
TAF AMD
KMHT 230831Z 2309/2406 04010KT P6SM OVC020
     FM231800 05010G20KT P6SM OVC015 PROB30 2400/2403 2SM -SN
     FM240300 02012G25KT 1 1/2SM -SNPL BR OVC015=

USA.gov is the U.S. government's official web portal to all federal, state and local government web resources and services.